When you browse on this site, cookies collect data to enhance your experience and personalize the content and advertising you see.
Visit our Privacy Policy to learn more. By continuing to use the site, you agree to this use of cookies and data.
  • In Schweiz
  • Länderverzeichnis
  • Für 7 Tage
  • Wassertemperatur
  • Satellitenkarten
  • Wetterkarte
  • Widgets
  • user-avatar
    Anmelden

    Stündliche Wetter Platonivka

    Heute, 21 April, Sonntag

    Zeit Temperatur Niederschläge Wind Luftdruck Luftfeuchtigkeit
    00:00 +8°C° 0 mm 1 m/S 760 mmHg 47%
    01:00 +7°C° 0 mm 1 m/S 760 mmHg 49%
    02:00 +7°C° 0 mm 1 m/S 760 mmHg 50%
    03:00 +6°C° 0 mm 1 m/S 760 mmHg 52%
    04:00 +6°C° 0 mm 1 m/S 760 mmHg 53%
    05:00 +6°C° 0 mm 1 m/S 760 mmHg 53%
    06:00 +6°C° 0 mm 1 m/S 760 mmHg 54%
    07:00 +8°C° 0 mm 1 m/S 760 mmHg 49%
    08:00 +9°C° 0 mm 2 m/S 760 mmHg 43%
    09:00 +12°C° 0 mm 2 m/S 760 mmHg 38%
    10:00 +12°C° 0 mm 3 m/S 760 mmHg 35%
    11:00 +12°C° 0 mm 3 m/S 760 mmHg 31%
    12:00 +13°C° 0 mm 4 m/S 760 mmHg 28%
    13:00 +14°C° 0 mm 4 m/S 760 mmHg 28%
    14:00 +14°C° 0 mm 4 m/S 760 mmHg 28%
    15:00 +15°C° 0 mm 4 m/S 760 mmHg 28%
    16:00 +14°C° 0 mm 4 m/S 760 mmHg 31%
    17:00 +14°C° 0 mm 4 m/S 760 mmHg 33%
    18:00 +13°C° 0 mm 3 m/S 759 mmHg 36%
    19:00 +12°C° 0 mm 3 m/S 760 mmHg 39%
    20:00 +12°C° 0 mm 2 m/S 760 mmHg 43%
    21:00 +9°C° 0 mm 2 m/S 760 mmHg 46%
    22:00 +9°C° 0 mm 2 m/S 760 mmHg 48%
    23:00 +9°C° 0 mm 2 m/S 760 mmHg 49%

    Morgen, 22 April, Montag

    Zeit Temperatur Niederschläge Wind Luftdruck Luftfeuchtigkeit
    00:00 +9°C° 0 mm 1 m/S 761 mmHg 51%
    01:00 +9°C° 0 mm 1 m/S 761 mmHg 52%
    02:00 +9°C° 0 mm 1 m/S 761 mmHg 53%
    03:00 +9°C° 0 mm 1 m/S 761 mmHg 55%
    04:00 +9°C° 0 mm 1 m/S 761 mmHg 56%
    05:00 +9°C° 0 mm 1 m/S 761 mmHg 57%
    06:00 +8°C° 0 mm 2 m/S 761 mmHg 58%
    07:00 +9°C° 0 mm 2 m/S 761 mmHg 54%
    08:00 +10°C° 0 mm 2 m/S 761 mmHg 50%
    09:00 +13°C° 0 mm 2 m/S 761 mmHg 46%
    10:00 +13°C° 0 mm 3 m/S 761 mmHg 42%
    11:00 +13°C° 0 mm 3 m/S 761 mmHg 38%
    12:00 +14°C° 0 mm 3 m/S 761 mmHg 35%
    13:00 +16°C° 0 mm 3 m/S 761 mmHg 35%
    14:00 +16°C° 0 mm 3 m/S 761 mmHg 34%
    15:00 +16°C° 0 mm 3 m/S 761 mmHg 34%
    16:00 +16°C° 0 mm 3 m/S 761 mmHg 37%
    17:00 +16°C° 0 mm 3 m/S 761 mmHg 41%
    18:00 +15°C° 0 mm 2 m/S 760 mmHg 44%
    19:00 +15°C° 0 mm 2 m/S 761 mmHg 47%
    20:00 +14°C° 0 mm 2 m/S 761 mmHg 49%
    21:00 +13°C° 0 mm 2 m/S 761 mmHg 52%
    22:00 +12°C° 0 mm 2 m/S 762 mmHg 54%
    23:00 +12°C° 0 mm 2 m/S 762 mmHg 57%

    übermorgen, 23 April, Dienstag

    Zeit Temperatur Niederschläge Wind Luftdruck Luftfeuchtigkeit
    00:00 +10°C° 0 mm 2 m/S 762 mmHg 60%
    01:00 +9°C° 0 mm 2 m/S 762 mmHg 62%
    02:00 +9°C° 0 mm 2 m/S 762 mmHg 64%
    03:00 +8°C° 0 mm 2 m/S 762 mmHg 66%
    04:00 +8°C° 0 mm 2 m/S 762 mmHg 66%
    05:00 +9°C° 0 mm 1 m/S 763 mmHg 67%
    06:00 +9°C° 0 mm 1 m/S 763 mmHg 67%
    07:00 +11°C° 0 mm 1 m/S 763 mmHg 62%
    08:00 +12°C° 0 mm 1 m/S 763 mmHg 57%
    09:00 +13°C° 0 mm 1 m/S 764 mmHg 52%
    10:00 +14°C° 0 mm 2 m/S 764 mmHg 47%
    11:00 +15°C° 0 mm 2 m/S 764 mmHg 42%
    12:00 +16°C° 0 mm 3 m/S 764 mmHg 37%
    13:00 +16°C° 0 mm 2 m/S 764 mmHg 37%
    14:00 +16°C° 0 mm 2 m/S 763 mmHg 37%
    15:00 +16°C° 0 mm 2 m/S 763 mmHg 37%
    16:00 +16°C° 0 mm 2 m/S 763 mmHg 40%
    17:00 +16°C° 0 mm 2 m/S 763 mmHg 43%
    18:00 +16°C° 0 mm 2 m/S 763 mmHg 46%
    19:00 +14°C° 0 mm 1 m/S 763 mmHg 50%
    20:00 +13°C° 0 mm 1 m/S 763 mmHg 54%
    21:00 +11°C° 0 mm 0 m/S 764 mmHg 58%
    22:00 +11°C° 0 mm 1 m/S 764 mmHg 59%
    23:00 +11°C° 0 mm 1 m/S 764 mmHg 60%

    24 April, Mittwoch

    Zeit Temperatur Niederschläge Wind Luftdruck Luftfeuchtigkeit
    00:00 +11°C° 0 mm 1 m/S 764 mmHg 60%
    01:00 +11°C° 0 mm 1 m/S 764 mmHg 61%
    02:00 +11°C° 0 mm 1 m/S 764 mmHg 62%
    03:00 +10°C° 0 mm 2 m/S 764 mmHg 63%
    04:00 +9°C° 0 mm 2 m/S 764 mmHg 65%
    05:00 +9°C° 0 mm 2 m/S 764 mmHg 67%
    06:00 +8°C° 0 mm 2 m/S 764 mmHg 70%
    07:00 +10°C° 0 mm 2 m/S 764 mmHg 63%
    08:00 +13°C° 0 mm 2 m/S 764 mmHg 57%
    09:00 +14°C° 0 mm 3 m/S 764 mmHg 50%
    10:00 +17°C° 0 mm 3 m/S 763 mmHg 45%
    11:00 +18°C° 0 mm 3 m/S 763 mmHg 41%
    12:00 +19°C° 0 mm 3 m/S 763 mmHg 36%
    13:00 +19°C° 0 mm 4 m/S 763 mmHg 38%
    14:00 +19°C° 0 mm 4 m/S 762 mmHg 40%
    15:00 +20°C° 0 mm 4 m/S 762 mmHg 42%
    16:00 +19°C° 0 mm 4 m/S 762 mmHg 46%
    17:00 +19°C° 0 mm 3 m/S 762 mmHg 50%
    18:00 +18°C° 0 mm 2 m/S 762 mmHg 54%
    19:00 +17°C° 0 mm 2 m/S 762 mmHg 57%
    20:00 +16°C° 0 mm 2 m/S 762 mmHg 59%
    21:00 +15°C° 0 mm 2 m/S 762 mmHg 62%
    22:00 +15°C° 0 mm 2 m/S 762 mmHg 63%
    23:00 +15°C° 0 mm 2 m/S 762 mmHg 65%

    25 April, Donnerstag

    Zeit Temperatur Niederschläge Wind Luftdruck Luftfeuchtigkeit
    00:00 +14°C° 0 mm 2 m/S 762 mmHg 67%
    01:00 +14°C° 0 mm 2 m/S 762 mmHg 69%
    02:00 +13°C° 0 mm 2 m/S 762 mmHg 72%
    03:00 +13°C° 0 mm 2 m/S 762 mmHg 74%
    04:00 +12°C° 0 mm 2 m/S 762 mmHg 75%
    05:00 +12°C° 0 mm 1 m/S 762 mmHg 76%
    06:00 +12°C° 0 mm 1 m/S 762 mmHg 78%
    07:00 +14°C° 0 mm 1 m/S 762 mmHg 70%
    08:00 +16°C° 0 mm 1 m/S 763 mmHg 63%
    09:00 +18°C° 0 mm 2 m/S 763 mmHg 56%
    10:00 +19°C° 0 mm 2 m/S 763 mmHg 50%
    11:00 +20°C° 0 mm 2 m/S 762 mmHg 45%
    12:00 +23°C° 0 mm 2 m/S 762 mmHg 39%
    13:00 +23°C° 0 mm 2 m/S 762 mmHg 38%
    14:00 +24°C° 0 mm 2 m/S 762 mmHg 36%
    15:00 +24°C° 0 mm 2 m/S 762 mmHg 35%
    16:00 +24°C° 0 mm 1 m/S 761 mmHg 37%
    17:00 +24°C° 0 mm 1 m/S 761 mmHg 38%
    18:00 +24°C° 0 mm 1 m/S 761 mmHg 40%
    19:00 +22°C° 0 mm 1 m/S 761 mmHg 43%
    20:00 +19°C° 0 mm 0 m/S 761 mmHg 46%
    21:00 +17°C° 0 mm 0 m/S 761 mmHg 49%
    22:00 +17°C° 0 mm 0 m/S 761 mmHg 50%
    23:00 +16°C° 0 mm 0 m/S 761 mmHg 52%

    26 April, Freitag

    Zeit Temperatur Niederschläge Wind Luftdruck Luftfeuchtigkeit
    00:00 +16°C° 0 mm 0 m/S 761 mmHg 54%
    01:00 +15°C° 0 mm 0 m/S 760 mmHg 56%
    02:00 +15°C° 0 mm 0 m/S 760 mmHg 58%
    03:00 +14°C° 0 mm 0 m/S 760 mmHg 61%
    04:00 +14°C° 0 mm 0 m/S 760 mmHg 62%
    05:00 +14°C° 0 mm 0 m/S 760 mmHg 63%
    06:00 +14°C° 0 mm 0 m/S 760 mmHg 64%
    07:00 +15°C° 0 mm 0 m/S 760 mmHg 60%
    08:00 +17°C° 0 mm 0 m/S 760 mmHg 55%
    09:00 +19°C° 0 mm 0 m/S 760 mmHg 51%
    10:00 +21°C° 0 mm 1 m/S 760 mmHg 49%
    11:00 +22°C° 0 mm 1 m/S 760 mmHg 48%
    12:00 +23°C° 0 mm 2 m/S 759 mmHg 46%
    13:00 +23°C° 0 mm 2 m/S 759 mmHg 43%
    14:00 +24°C° 0 mm 2 m/S 759 mmHg 39%
    15:00 +24°C° 0 mm 1 m/S 759 mmHg 35%
    16:00 +23°C° 0 mm 2 m/S 758 mmHg 41%
    17:00 +21°C° 0 mm 2 m/S 758 mmHg 46%
    18:00 +20°C° 0 mm 2 m/S 758 mmHg 51%
    19:00 +19°C° 0 mm 2 m/S 758 mmHg 53%
    20:00 +19°C° 0 mm 1 m/S 758 mmHg 56%
    21:00 +18°C° 0 mm 1 m/S 758 mmHg 58%
    22:00 +18°C° 0 mm 1 m/S 758 mmHg 57%
    23:00 +18°C° 0 mm 1 m/S 757 mmHg 57%
    Mehr zeigen